FENGYUN 1C DEB

Satellite information

Favourite Embed

Satellite Type and Status

DEBRISIN ORBIT

Key statistics

Satellite FENGYUN 1C DEB at a glance.

Uptime

9662

Days in orbit

Revolutions

≈ 14.4

Per day

Orbit

SSO

Sun Synchronous Orbit

Inclination

98.9

Latest

Satellite identification and parameters

Extended collection of information and parameters for FENGYUN 1C DEB.

Object identification

Identified? True

Debris? True

Object name: FENGYUN 1C DEB

International designator: 1999-025CRY

Object number (NORAD): 32130

Object ID (CCSDS): 32130

Country: PEOPLES REPUBLIC OF CHINA (PRC)

Current information (Y/N): Y

RCS size: SMALL

Orbital parameters

Period: 100.185 minutes

Inclination: 98.9017 deg

SMA: 7145.446 km

Apoapsis: 827.336 km

Periapsis: 707.287 km

RAAN: 96.7858 deg

Eccentricy: 0.00840038

Argument of periapsis: 130.2029 deg

Mean anomaly: 230.6547 deg

Mean motion: 14.37337386 rev/day

Mean motion (dot): 0.00003035 rev/day2

B* drag term: 0.00099126559 1/REarth

Two-line elements (TLE)

Creation date: Oct. 19, 2025, 10:30 a.m.

Reference frame: TEME

Reference center: EARTH

Epoch: Oct. 19, 2025, 4:48 a.m. UTC

TLE line 0: 0 FENGYUN 1C DEB

TLE line 1: 1 32130U 99025CRY 25292.20035266 .00003035 00000-0 99127-3 0 9990

TLE line 2: 2 32130 98.9017 96.7858 0084004 130.2029 230.6547 14.37337386954517

Live tracking on map

Real-time ground track for satellite FENGYUN 1C DEB.

In-orbit conjunctions

A list of the most updated potential collisions computed for object FENGYUN 1C DEB.

Target Orbit TCA Probability of collision Miss distance Type
CZ-6A DEB LEO 2025-07-30 00:54:02 0.0001792531 853.0 (m) DEBRIS
COSMOS 2251 DEB LEO 2025-02-18 20:07:08 0.0001084816 106.0 (m) DEBRIS
CZ-6A DEB LEO 2025-01-27 12:43:31 0.0001084458 195.0 (m) DEBRIS
COSMOS 304 LEO 2024-12-24 07:12:57 0.0002674951 259.0 (m) PAYLOAD

Associated space launch

Chinese polar orbiting meteorological satellite

FENGYUN 1C DEB was lifted into orbit during the mission ‘Long March 4B | Feng Yun 1C’, on board a Long March 4B space rocket.

The launch took place on May 10, 1999, 1:33 a.m. from Launch Complex 7.

For more information about the launch, click the button.

Launch to space Long March 4B | Feng Yun 1C
Long March 4B | Feng Yun 1C

Agency: N/A

Status: Launch Successful

Launch date: May 10, 1999, 1:33 a.m. UTC

Rocket: Long March 4B

Launch pad: Launch Complex 7

Location: Taiyuan Satellite Launch Center, People's Republic of China

...

Latest news about this satellite

There are no fresh news available about this satellite. Check back as we update our databases every day.


Newsletter sign-up

Weekly statistics, charts and insights to help you stay on top of the space industry.